Regional Weather Roundup
Issued by NWS

Home | Current Version | Previous Version | Graphics & Text | Print | Product List | Glossary On
Versions: 1 2 3 4 5 6 7 8 9 10 11 12 13 14 15 16 17 18 19 20 21 22 23 24 25 26 27 28 29 30 31 32 33 34 35 36 37 38 39 40 41 42 43 44 45 46 47 48 49 50
000
ASUS43 KMKX 271200
RWRWI

WISCONSIN REGIONAL WEATHER ROUNDUP
NATIONAL WEATHER SERVICE MILWAUKEE/SULLIVAN WI
700 AM CDT TUE SEP 27 2016

NOTE: "FAIR" INDICATES FEW OR NO CLOUDS BELOW 12,000 FEET WITH NO
SIGNIFICANT WEATHER AND/OR OBSTRUCTIONS TO VISIBILITY.

WIZ001-002-006>008-014>016-023>028-271300-
NORTHWEST WISCONSIN

CITY           SKY/WX    TMP DP  RH WIND       PRES   REMARKS
SUPERIOR ARPT  CLOUDY    51  45  78 W14       29.70S
ASHLAND        CLOUDY    49  45  86 W13G21    29.65R
6HR MIN TEMP:  49; 6HR MAX TEMP:  51; 6HR PCP:  0.08;

HAYWARD        CLOUDY    49  45  86 W6        29.70S
6HR MIN TEMP:  49; 6HR MAX TEMP:  53; 6HR PCP:  0.02;

SIREN          CLOUDY    50  42  74 W12G17    29.75S
CUMBERLAND     CLOUDY    46  41  81 W15G22    29.74S
RICE LAKE      CLOUDY    50  42  72 W9G16     29.75S
CHETEK         NOT AVBL
LADYSMITH      RAIN      50  45  80 W14       29.72S
EAU CLAIRE     NOT AVBL
MENOMONIE      CLOUDY    51  41  68 W15G22    29.78S
NEW RICHMOND   CLEAR     47  40  74 W13G21    29.79S
OSCEOLA        PTCLDY    48  41  76 W12       29.82S
$$

WIZ003>005-009-010-017-018-271300-
NORTH CENTRAL WISCONSIN

CITY           SKY/WX    TMP DP  RH WIND       PRES   REMARKS
MANITOWISH WTR NOT AVBL
ARBOR VITAE    DRIZZLE   49  48  94 NW8G23    29.62S
WOODRUFF       DRIZZLE   49  48  94 NW8G23    29.62S
RHINELANDER    LGT RAIN  48  47  96 W14G25    29.63S
6HR MIN TEMP:  48; 6HR MAX TEMP:  51; 6HR PCP: TRACE;

EAGLE RIVER    DRIZZLE   47  47  97 W14       29.60S
LAND O LAKES   CLOUDY    48  46  95 W9G16     29.59S FOG
PHILLIPS       LGT RAIN  46  46  98 W5        29.66S
TOMAHAWK       CLOUDY    47  43  88 W9        29.66S
MEDFORD        DRIZZLE   48  43  81 W13       29.69S
MERRILL        DRIZZLE   49  44  84 W10G18    29.67S
$$

WIZ029-030-035-036-043>047-271300-
CENTRAL WISCONSIN

CITY           SKY/WX    TMP DP  RH WIND       PRES   REMARKS
WAUSAU         LGT RAIN  50  43  77 W13G23    29.67R
6HR MIN TEMP:  50; 6HR MAX TEMP:  53; 6HR PCP: TRACE;

MOSINEE        NOT AVBL
MARSHFIELD     CLOUDY    51  41  68 W14G20    29.70S
6HR MIN TEMP:  50; 6HR MAX TEMP:  51;

STEVENS POINT  CLOUDY    49  41  74 W13       29.70S
WAUPACA        CLOUDY    54  42  65 W12       29.70F
WAUTOMA        CLOUDY    50  41  71 W9        29.73F
6HR MIN TEMP:  48; 6HR MAX TEMP:  50;

WISC RAPIDS    CLOUDY    50  43  77 W9        29.73S
6HR MIN TEMP:  50; 6HR MAX TEMP:  52;

CAMP DOUGLAS   NOT AVBL
$$

WIZ011>013-019>022-031-037>040-048>050-271300-
NORTHEAST WISCONSIN

CITY           SKY/WX    TMP DP  RH WIND       PRES   REMARKS
ANTIGO         DRIZZLE   47  44  87 W13       29.64F
SHAWANO        CLOUDY    54  43  67 W9        29.66S
OCONTO         NOT AVBL
STURGEON BAY   LGT RAIN  53  45  74 W13G23    29.63S
6HR MIN TEMP:  52; 6HR MAX TEMP:  56;

GREEN BAY      CLOUDY    53  44  71 W10G20    29.66S
6HR MIN TEMP:  53; 6HR MAX TEMP:  54;

MANITOWOC      NOT AVBL
APPLETON       MOCLDY    52  39  62 W13       29.67F
CLINTONVILLE   NOT AVBL
OSHKOSH        CLOUDY    50  40  68 W10G17    29.69F
6HR MIN TEMP:  50; 6HR MAX TEMP:  55;

$$

WIZ032>034-041-042-053>061-271300-
SOUTHWEST WISCONSIN

CITY           SKY/WX    TMP DP  RH WIND       PRES   REMARKS
LA CROSSE      CLEAR     53  39  59 W13       29.80S
6HR MIN TEMP:  52; 6HR MAX TEMP:  58;

SPARTA         CLEAR     48  40  73 W5        29.78S
VIROQUA        CLEAR     47  37  66 W7        29.80S
BOSCOBEL       CLEAR     49  39  68 SW8       29.83F
6HR MIN TEMP:  49; 6HR MAX TEMP:  55;

PRAIRIE DU CHI CLEAR     49  36  58 W6        29.85S
PLATTEVILLE    CLEAR     45  40  82 SW8       29.85F
$$

WIZ056-057-062-063-064-067-068-271300-
SOUTH CENTRAL WISCONSIN

CITY           SKY/WX    TMP DP  RH WIND       PRES   REMARKS
REEDSBURG      NOT AVBL
BARABOO/DELLS  CLEAR     49  36  61 W8        29.77S
LONE ROCK      NOT AVBL
MINERAL POINT  CLEAR     46  37  71 W10       29.82F
MADISON        PTCLDY    51  37  58 VRB7      29.77F
6HR MIN TEMP:  51; 6HR MAX TEMP:  55;

MIDDLETON      NOT AVBL
WATERTOWN      CLEAR     48  40  74 SW6       29.76F
MONROE         CLEAR     46  36  66 SW15      29.83S
JANESVILLE     CLEAR     50  37  62 W9        29.81S
$$

WIZ051-052-058>065-066-070>072-271300-
SOUTHEAST WISCONSIN

CITY           SKY/WX    TMP DP  RH WIND       PRES   REMARKS
MILWAUKEE      PTCLDY    53  38  56 SW12      29.76F
6HR MIN TEMP:  53; 6HR MAX TEMP:  57;

WAUKESHA       CLEAR     48  37  66 W12G17    29.77F
MILWAUKEE/TIMM CLEAR     50  36  57 SW12      29.76F
RACINE         CLEAR     51  38  60 SW10      29.79S
6HR MIN TEMP:  50; 6HR MAX TEMP:  53;

BURLINGTON     CLEAR     47  37  66 W9        29.79F
KENOSHA        CLEAR     48  39  71 SW13      29.80S
6HR MIN TEMP:  48; 6HR MAX TEMP:  52;

FOND DU LAC    MOCLDY    49  40  71 SW8       29.72F
6HR MIN TEMP:  49; 6HR MAX TEMP:  52;

SHEBOYGAN      CLOUDY    52  40  63 W14       29.70F
6HR MIN TEMP:  48; 6HR MAX TEMP:  52;

WEST BEND      PTCLDY    50  37  62 W10G16    29.73F
JUNEAU         PTCLDY    46  39  76 SW10      29.76S
$$

LSZ147-162-271300-
LAKE SUPERIOR

STATION/POSITION TIME  TEMP    WIND        PRES    WAVE
                       AIR SEA DIR/SP/G            HT/PER
                 (UTC) (F)     (DEG/KT/KT) (MB)    (FT/S)
W MID LAKE BUOY  1050   51 46  280/ 17/ 21  999.6R   5/ 6
DEVILS ISLAND    1100   52     290/ 21/ 24 1002.6R
SAXON HARBOR     1140   51     220/  7/ 11 1003.7R
$$

LMZ867-665-643>646-271300-
LAKE MICHIGAN

STATION/POSITION TIME  TEMP    WIND        PRES    WAVE
                       AIR SEA DIR/SP/G            HT/PER
                 (UTC) (F)     (DEG/KT/KT) (MB)    (FT/S)
CHAMBERS ISLAND  1100   56     220/ 10/ 20 1002.0S
N MID LAKE BUOY  1050   58 66  250/ 23/ 29 1000.3F   6/ 6
NORTHPORT PIER   1100   56     250/  6/ 14 1002.0S
KEWAUNEE LAKESHO 1100   54     250/ 11/ 15 1003.8F
SHEBOYGAN LAKESH 1100   53     250/ 12/ 14 1005.6F
PORT WASHINGTON  1140   52     250/  7/ 10 1007.5F
ATWATER BUOY     1100   54 57  240/ 12/ 14 1007.8F
MILWAUKEE LAKESH 1110   54     260/ 11/ 15   N/A
S MID LAKE BUOY  1050   61 70  260/ 25/ 29 1007.0F   4/ 6
KENOSHA   LAKESH 1100   53     250/ 11/ 16 1009.1S
$$

TC  - TEMPERATURE IN CELSIUS
VSB - VISIBILITY IN STATUTE MILES
WCI - WIND CHILL INDEX
HX  - HEAT INDEX





USA.gov is the U.S. government's official web portal to all federal, state and local government web resources and services.